Location: NJAA Observatory
(40.6819°N, 74.8979°W)
Time: 23:43:05
(UTC-04:00)

S-56A Canister/Altair - Visible Passes

Search period start: 31 July 2014 00:00
Search period end: 10 August 2014 00:00
Orbit: 633 x 2503 km, 38.9° (Epoch: 30 July)

Date Brightness Start Highest point End Pass type
(mag) Time Alt. Az. Time Alt. Az. Time Alt. Az.
31 Jul 8.3 00:48:28 10° WSW 00:58:38 77° S 01:05:10 10° E visible
31 Jul 7.8 02:55:10 10° W 03:02:53 65° SSW 03:08:08 10° ESE visible
31 Jul 8.7 05:01:33 10° W 05:05:54 22° SW 05:09:32 10° SSE visible
31 Jul 9.3 22:09:08 10° SW 22:21:15 49° SSE 22:29:38 10° E visible
01 Aug 8.5 00:15:19 10° WSW 00:26:14 76° S 00:28:59 45° E visible
01 Aug 8.2 02:22:14 10° W 02:32:07 54° SE 02:36:19 10° ESE visible
01 Aug 8.5 04:29:47 14° W 04:33:56 27° SW 04:38:03 10° SSE visible
01 Aug 9.6 21:36:08 10° SW 21:48:37 46° SSE 21:57:29 10° E visible
01 Aug 8.7 23:42:07 10° WSW 23:53:46 74° S 23:58:26 29° E visible
02 Aug 8.9 01:49:13 10° W 02:04:06 12° ESE 02:04:28 10° ESE visible
02 Aug 8.4 04:01:47 32° SW 04:01:57 32° SSW 04:06:30 10° SSE visible
02 Aug 9.8 21:03:12 10° SW 21:15:56 44° SSE 21:25:16 10° E visible
02 Aug 8.9 23:08:53 10° WSW 23:21:13 73° SSE 23:27:39 19° E visible
03 Aug 8.5 01:16:07 10° W 01:25:04 67° WSW 01:25:04 67° WSW visible
03 Aug 9.4 03:33:43 17° SSE 03:33:43 17° SSE 03:34:53 10° SE visible
03 Aug 10.0 20:30:20 10° SSW 20:43:12 41° SSE 20:52:58 10° E visible
03 Aug 9.1 22:35:39 10° WSW 22:48:36 71° SSE 22:56:47 12° E visible
04 Aug 8.5 00:42:56 10° W 00:53:46 79° S 00:54:12 77° SSE visible
04 Aug 10.3 02:49:57 10° W 02:51:38 16° W 02:51:38 16° W visible
04 Aug 9.3 22:02:26 10° WSW 22:15:55 68° SSE 22:25:09 10° E visible
05 Aug 8.7 00:09:42 10° W 00:21:18 81° S 00:23:17 58° ESE visible
05 Aug 9.9 02:16:55 10° W 02:20:43 24° W 02:20:43 24° W visible
05 Aug 9.5 21:29:15 10° WSW 21:43:10 66° SSE 21:53:00 10° E visible
05 Aug 8.9 23:36:25 10° W 23:48:46 82° S 23:52:21 42° E visible
06 Aug 9.5 01:43:49 10° W 01:49:47 35° W 01:49:47 35° W visible
06 Aug 9.6 20:56:06 10° SW 21:10:22 63° SSE 21:20:46 10° E visible
06 Aug 9.0 23:03:06 10° W 23:16:08 82° S 23:21:25 30° E visible
07 Aug 9.1 01:10:38 10° W 01:18:50 50° WSW 01:18:50 50° WSW visible
07 Aug 9.8 20:23:02 10° SW 20:37:30 61° SSE 20:48:28 10° E visible
07 Aug 9.2 22:29:46 10° W 22:43:26 81° S 22:50:27 22° E visible
08 Aug 8.8 00:37:24 10° W 00:47:52 66° SW 00:47:52 66° SW visible
08 Aug 10.7 02:45:00 10° W 02:45:17 11° W 02:45:17 11° W visible
08 Aug 9.4 21:56:27 10° WSW 22:10:39 81° S 22:19:29 15° E visible
09 Aug 8.8 00:04:08 10° W 00:16:15 73° SSW 00:16:54 71° SSE visible
09 Aug 10.4 02:11:44 10° W 02:14:20 18° W 02:14:20 18° W visible
09 Aug 9.6 21:23:10 10° WSW 21:37:48 79° S 21:48:18 10° E visible
09 Aug 9.0 23:30:49 10° W 23:43:41 76° SSW 23:45:57 58° SE visible
